TimePDT,TemperatureF,Dew PointF,Humidity,Sea Level PressureIn,VisibilityMPH,Wind Direction,Wind SpeedMPH,Gust SpeedMPH,PrecipitationIn,Events,Conditions,WindDirDegrees,DateUTC
12:52 AM,43.0,28.9,58,29.78,10.0,WSW,4.6,-,N/A,,Clear,250,2013-04-08 07:52:00
1:52 AM,37.9,30.0,73,29.95,10.0,South,3.5,-,N/A,,Clear,170,2013-04-08 08:52:00
2:52 AM,37.9,30.0,73,29.98,10.0,Calm,Calm,-,N/A,,Mostly Cloudy,0,2013-04-08 09:52:00
3:52 AM,37.0,28.9,73,30.00,10.0,NW,5.8,-,N/A,,Mostly Cloudy,310,2013-04-08 10:52:00
4:52 AM,37.9,30.9,76,30.02,10.0,Calm,Calm,-,N/A,,Overcast,0,2013-04-08 11:52:00
5:52 AM,39.0,30.9,73,30.04,10.0,Calm,Calm,-,N/A,,Overcast,0,2013-04-08 12:52:00
6:52 AM,39.0,32.0,76,30.08,10.0,SE,4.6,-,N/A,,Overcast,140,2013-04-08 13:52:00
7:52 AM,44.1,34.0,68,30.11,10.0,WNW,4.6,-,N/A,,Overcast,290,2013-04-08 14:52:00
8:52 AM,45.0,36.0,71,30.14,10.0,ENE,4.6,-,N/A,,Overcast,60,2013-04-08 15:52:00
9:52 AM,48.0,35.1,61,30.16,10.0,East,3.5,-,N/A,,Scattered Clouds,80,2013-04-08 16:52:00
10:52 AM,51.1,35.1,54,30.03,10.0,NE,3.5,-,N/A,,Partly Cloudy,40,2013-04-08 17:52:00
11:09 AM,51.8,33.8,50,30.02,10.0,ENE,8.1,-,N/A,,Mostly Cloudy,60,2013-04-08 18:09:00
11:29 AM,50.0,33.8,54,30.03,10.0,NNE,3.5,-,N/A,,Mostly Cloudy,20,2013-04-08 18:29:00
11:52 AM,52.0,35.1,53,30.05,10.0,Variable,6.9,-,N/A,,Scattered Clouds,0,2013-04-08 18:52:00
12:52 PM,54.0,35.1,49,30.05,10.0,North,6.9,-,N/A,,Scattered Clouds,350,2013-04-08 19:52:00
1:52 PM,55.0,33.1,43,30.21,10.0,NNE,6.9,-,N/A,,Mostly Cloudy,20,2013-04-08 20:52:00
2:52 PM,55.9,30.9,39,30.22,10.0,ESE,4.6,-,N/A,,Partly Cloudy,110,2013-04-08 21:52:00
3:52 PM,57.9,30.9,36,30.07,10.0,NE,6.9,-,N/A,,Mostly Cloudy,50,2013-04-08 22:52:00
4:52 PM,57.0,32.0,39,30.09,10.0,Variable,3.5,-,N/A,,Overcast,0,2013-04-08 23:52:00
5:52 PM,57.0,30.0,36,30.10,10.0,Variable,3.5,-,N/A,,Overcast,0,2013-04-09 00:52:00
6:52 PM,55.9,30.9,39,30.12,10.0,Calm,Calm,-,N/A,,Overcast,0,2013-04-09 01:52:00
7:52 PM,54.0,33.1,45,30.14,10.0,SSE,5.8,-,N/A,,Overcast,150,2013-04-09 02:52:00
8:52 PM,51.1,37.0,59,30.16,10.0,Calm,Calm,-,N/A,,Mostly Cloudy,0,2013-04-09 03:52:00
9:52 PM,50.0,37.0,61,30.18,10.0,Calm,Calm,-,N/A,,Mostly Cloudy,0,2013-04-09 04:52:00
10:52 PM,46.9,36.0,66,30.20,10.0,ENE,3.5,-,N/A,,Partly Cloudy,60,2013-04-09 05:52:00
11:52 PM,46.9,36.0,66,30.21,10.0,ESE,5.8,-,N/A,,Overcast,120,2013-04-09 06:52:00